Tracking 27112 objects as of 27-Mar-2023
HD Live streaming from Space Station
objects crossing your sky now

SL-14 R/B

Track SL-14 R/B now!
10-day predictions
SL-14 R/B is classified as:


NORAD ID: 21423
Int'l Code: 1991-042B
Perigee: 623.5 km
Apogee: 648.2 km
Inclination: 82.5 °
Period: 97.3 minutes
Semi major axis: 7006 km
RCS: 4.7234 m2 (large)
Launch date: June 13, 1991
Source: Commonwealth of Independent States (former USSR) (CIS)
Launch site: PLESETSK MISSILE AND SPACE COMPLEX (PKMTR)

Note: This is a ROCKET BODY
Your satellite tracking list
Your tracking list is empty




NASA's NSSDC Master Catalog

Two Line Element Set (TLE):
1 21423U 91042B   23085.91485305  .00000785  00000-0  10007-3 0  9992
2 21423  82.4946 150.4935 0017609 177.0363 183.0958 14.80195220693402
Source of the keplerian elements: AFSPC